Theta_e
326 326 328 334 336 337 339 342 343 341 341 339 339 338 337 339 338 338 339 340 340 339 339 340 338 337 337 334 331 325 322 319 320 321 322 321 320 320 321 324 323 321 320
324 323 324 325 326 328 330 332 333 336 339 340 337 336 335 335 335 335 334 335 336 338 337 338 337 336 335 335 333 328 323 320 319 322 321 319 320 319 320 321 323 321 320
323 322 321 321 320 321 321 322 323 325 327 333 336 335 334 335 335 334 334 333 332 333 334 335 336 335 334 334 333 330 323 320 321 321 320 319 318 317 318 319 321 321 319
323 321 320 319 318 316 315 315 314 314 315 318 320 322 324 326 323 325 334 334 334 333 331 330 332 331 332 332 332 330 325 321 321 321 321 318 318 316 316 317 319 320 319
321 319 319 317 316 315 314 313 313 313 313 314 314 315 316 317 317 317 319 322 325 329 331 329 330 329 330 330 330 330 326 322 321 322 321 321 319 319 315 315 316 317 318
321 319 317 315 313 312 312 312 311 311 311 312 313 314 314 315 315 316 315 316 319 324 327 326 329 328 326 326 327 328 327 323 322 321 322 321 320 319 319 315 315 315 316
320 317 315 313 311 310 310 309 309 308 308 309 310 311 312 312 313 314 314 315 316 317 320 323 323 321 321 321 322 323 325 325 324 322 321 321 320 319 318 319 316 315 314
317 315 313 312 309 309 309 309 308 308 309 309 310 310 310 310 310 311 312 314 315 314 316 316 319 321 321 322 321 320 319 320 321 322 321 321 320 319 319 318 317 314 312
315 313 312 310 309 308 308 308 308 308 308 308 308 308 309 310 310 310 310 311 314 315 315 315 316 316 316 316 316 317 318 317 316 318 319 320 320 320 319 318 317 314 312
313 312 310 310 308 307 307 307 307 307 307 307 308 308 308 309 310 310 311 312 313 315 315 313 313 313 312 311 311 311 311 313 314 314 315 316 317 319 319 319 317 315 312
312 311 310 309 308 307 307 307 307 307 307 307 308 308 309 310 311 312 312 312 313 313 311 309 307 307 306 307 307 307 307 307 307 308 309 310 312 314 316 317 316 313 312
311 311 310 309 308 307 307 307 307 307 308 308 309 310 310 311 311 311 312 312 311 309 308 307 306 304 303 302 301 301 301 303 304 306 306 307 308 309 310 313 313 312 310
311 310 310 310 308 307 307 307 307 307 307 308 308 309 311 311 311 312 311 309 308 306 306 305 304 301 300 299 298 297 297 298 298 299 300 302 305 306 308 309 309 310 310
309 310 310 310 308 307 307 306 306 306 307 308 309 309 311 311 311 308 307 305 304 303 302 301 299 298 296 296 295 294 295 295 295 296 297 298 300 303 305 306 306 306 304
308 309 309 309 308 306 305 305 305 306 307 308 309 310 309 307 306 305 304 303 301 300 298 298 296 295 294 294 294 293 293 293 293 293 294 294 296 300 302 302 302 302 300
308 308 307 306 305 304 304 304 304 305 308 308 308 307 306 304 303 302 301 301 300 298 297 296 295 293 293 293 293 292 291 291 290 290 291 292 293 294 297 297 297 300 300
308 307 306 305 304 304 304 304 304 305 308 307 305 304 303 302 302 301 301 300 298 296 296 294 294 293 292 291 291 291 290 290 289 289 289 289 290 291 291 292 294 294 294
307 306 305 304 303 303 303 303 304 304 307 306 304 303 302 302 301 300 299 298 296 295 294 294 293 292 290 290 290 289 289 288 288 288 287 287 288 288 288 288 288 289 290
306 305 304 303 303 303 303 303 302 303 305 305 304 303 302 302 301 299 299 297 295 294 294 293 291 291 289 289 289 289 288 287 286 286 286 286 286 286 287 287 286 286 286
305 304 303 302 302 302 302 302 302 302 304 305 304 302 301 300 299 298 298 296 294 293 293 291 291 289 288 289 289 289 288 286 286 285 285 285 285 285 286 285 285 284 284
303 303 302 302 302 302 303 303 302 302 303 304 303 301 301 300 299 298 297 296 295 293 292 291 291 290 289 289 289 288 287 286 286 284 283 283 284 284 285 285 285 283 283
302 302 302 302 302 302 303 303 302 302 302 303 301 301 300 299 298 297 296 295 294 292 291 291 290 289 289 288 288 288 288 287 286 284 282 282 283 284 284 283 283 283 283
301 301 302 302 301 301 302 302 302 302 302 301 299 298 298 297 296 296 294 293 293 292 291 291 290 289 288 287 287 287 287 286 285 282 281 282 283 283 282 283 283 283 283
301 300 300 301 301 301 301 301 301 302 302 301 298 296 296 295 295 294 294 293 293 293 292 291 291 289 288 287 286 285 286 285 283 282 282 282 281 282 283 283 283 283 284
299 299 299 300 300 300 300 300 300 301 302 301 299 296 294 294 294 293 293 293 293 293 293 292 291 289 288 287 286 285 284 283 282 282 282 281 281 282 283 282 283 283 283
299 299 300 300 300 300 300 300 300 300 301 300 299 297 295 294 293 292 292 292 292 292 291 291 291 290 289 288 286 285 284 284 282 283 284 283 283 283 282 282 282 282 282
Wind_Speed
12 8 5 8 11 10 9 12 16 14 15 13 10 9 9 10 11 13 14 12 18 20 25 23 18 20 22 27 22 23 23 27 22 23 17 22 22 20 24 22 24 26 24
12 10 8 8 11 12 12 12 12 10 11 16 12 6 6 4 5 6 11 17 20 18 22 26 27 26 26 29 30 28 28 25 29 19 13 3 11 25 24 24 29 27 29
15 11 10 10 11 11 12 14 14 12 10 11 16 11 7 6 6 9 11 10 11 14 20 22 25 29 29 27 31 33 32 25 29 30 15 3 5 9 21 29 29 33 33
15 12 11 12 12 10 11 12 13 11 12 16 12 8 5 4 5 8 4 1 10 12 12 14 19 21 26 29 30 32 32 29 24 26 35 23 12 4 3 25 29 29 34
15 13 13 16 14 12 9 8 10 9 9 10 9 8 8 8 8 9 10 8 9 10 12 15 17 22 24 26 28 30 33 30 30 26 25 32 29 18 4 5 18 27 31
16 14 16 18 15 10 8 7 7 8 6 5 4 3 4 6 9 10 12 13 11 9 9 12 14 14 16 20 25 29 30 33 33 32 30 27 22 22 9 4 15 21 26
14 13 12 11 16 12 9 6 6 5 4 3 2 3 4 6 9 11 11 12 11 11 9 9 14 16 20 22 22 24 28 30 31 32 32 31 31 33 30 20 13 11 22
13 12 11 11 11 9 8 5 3 2 2 1 1 3 5 7 9 10 10 11 13 16 16 15 12 9 12 17 19 23 26 28 29 33 36 33 35 33 31 28 12 5 10
13 11 10 9 8 9 7 5 1 1 2 2 4 7 9 10 11 12 14 14 13 14 14 15 14 14 15 16 19 21 26 29 30 30 31 34 36 37 34 32 32 22 11
13 10 9 13 8 7 5 5 3 4 5 4 6 9 10 11 13 14 14 13 13 13 11 12 14 15 16 16 18 21 23 24 27 29 30 31 31 33 35 36 35 32 28
12 9 7 12 10 7 5 4 4 4 6 8 8 9 10 11 11 11 12 12 11 9 13 14 15 16 15 16 18 20 23 26 29 30 30 32 32 32 33 31 34 31 32
11 10 7 8 9 8 5 5 4 5 7 7 8 9 10 10 10 10 10 8 5 9 13 13 13 13 13 14 16 18 19 22 24 27 29 32 31 32 33 33 34 26 36
13 8 7 6 7 7 3 3 5 4 6 9 11 13 14 12 9 8 4 6 11 11 10 10 13 12 13 14 14 16 19 20 23 26 28 29 29 32 31 29 27 27 29
11 10 8 7 9 5 3 4 5 6 7 10 12 14 14 6 1 3 6 9 6 8 8 9 8 8 9 10 12 16 18 19 19 22 24 28 30 30 32 31 29 22 16
14 12 9 6 6 4 2 3 6 8 9 8 13 12 4 3 4 8 10 7 5 4 5 4 5 6 7 9 10 13 14 13 13 11 8 10 10 19 21 23 25 25 20
15 12 8 6 6 5 1 4 7 9 6 6 8 9 7 7 8 6 5 5 4 3 3 2 3 4 5 8 12 10 9 9 6 8 9 10 12 12 7 10 14 21 25
12 9 7 6 6 4 1 2 7 9 5 5 7 9 10 9 7 5 5 4 2 2 2 1 1 3 5 7 8 7 4 5 8 10 11 11 10 11 10 8 9 11 17
9 8 7 8 8 7 3 2 4 8 7 6 6 8 8 7 6 5 5 3 3 1 2 2 1 2 4 6 7 7 10 12 13 14 13 16 16 14 18 21 23 22 16
8 10 13 11 6 5 4 2 6 3 4 7 8 7 8 6 3 2 3 2 2 2 2 1 1 3 5 4 4 6 9 12 14 14 13 15 16 13 14 20 26 29 28
11 9 10 9 8 8 9 6 4 4 4 7 8 9 9 8 6 5 5 4 4 4 3 3 2 2 3 4 5 4 8 9 11 12 14 15 14 15 14 18 20 22 22
14 15 13 11 12 13 9 4 5 3 3 4 8 9 11 12 11 8 9 10 7 5 4 3 3 2 3 4 4 3 6 9 11 10 11 13 11 9 14 15 19 20 20
10 11 11 11 13 10 8 8 6 1 1 2 9 13 15 13 13 14 16 12 8 7 6 6 6 5 5 4 5 5 6 7 11 12 12 10 12 13 16 20 20 20 20
9 11 10 9 9 6 5 10 11 4 3 3 8 13 13 13 14 15 15 13 11 10 11 11 10 10 9 7 7 8 8 7 11 16 15 14 16 20 21 18 17 17 19
9 11 11 10 6 5 7 8 5 5 4 4 6 12 12 12 14 16 17 15 14 14 14 14 14 13 12 10 9 10 12 11 16 17 16 15 18 23 20 17 15 14 14
8 9 9 7 7 10 9 9 8 5 8 6 8 11 13 13 14 16 16 15 13 14 15 16 15 16 15 15 14 14 14 16 19 20 18 16 18 17 14 13 14 16 17
10 10 8 8 9 9 9 8 6 6 7 10 13 12 14 15 15 15 10 10 11 11 11 11 14 15 12 14 14 15 14 17 21 17 16 16 14 14 13 13 12 12 13
Wind_Direction
117 119 84 88 101 103 119 143 143 159 167 178 189 214 233 238 250 249 241 237 233 238 235 231 233 228 226 230 229 222 224 222 225 216 219 202 209 214 211 208 201 195 192
138 133 120 95 94 104 112 114 114 143 173 173 176 169 179 211 234 253 249 248 250 248 248 245 245 249 250 240 232 229 221 221 222 208 208 189 213 225 216 216 200 204 201
151 145 138 125 112 101 95 93 94 76 65 125 138 148 156 190 201 226 236 243 246 245 250 253 251 246 243 243 245 230 224 218 221 218 194 171 220 193 218 221 215 198 199
148 154 147 139 125 108 97 97 93 83 57 74 82 91 58 71 22 36 157 300 257 251 247 263 259 259 257 254 252 241 233 224 225 225 222 218 191 183 194 216 222 212 196
146 154 158 152 138 125 114 101 103 88 64 57 57 46 24 3 340 335 339 321 291 266 267 271 263 264 263 262 257 251 236 229 233 235 233 232 235 233 162 197 206 217 201
150 154 158 143 133 143 131 116 95 94 84 76 62 40 356 334 327 319 315 303 292 282 270 280 270 271 276 277 267 259 250 236 235 236 241 236 230 236 231 200 199 204 199
155 150 160 165 150 147 146 153 108 90 88 69 35 356 325 311 298 301 308 320 326 326 319 288 276 272 269 274 277 272 267 257 246 242 242 244 240 238 238 230 203 200 197
144 166 164 150 150 166 153 134 123 143 127 170 278 294 297 298 299 301 307 310 302 293 299 302 291 302 291 280 277 280 282 273 264 254 243 245 242 238 239 237 221 212 195
156 174 151 154 177 162 154 150 144 298 296 291 291 284 279 280 284 288 288 283 288 295 297 306 309 299 299 300 296 289 283 280 275 272 268 256 249 242 242 236 225 201 199
162 174 158 172 177 177 173 173 214 267 279 288 298 290 286 283 280 287 293 290 291 289 293 306 308 301 296 295 291 287 290 287 280 275 273 270 264 256 246 238 229 215 208
167 165 172 162 179 188 201 183 210 261 289 278 275 269 268 274 278 279 283 285 287 307 322 315 307 302 305 299 297 293 289 283 282 280 274 272 271 270 265 250 233 219 214
165 184 167 160 192 191 205 215 211 235 260 282 286 286 279 285 283 281 282 260 282 306 304 306 305 312 316 318 316 311 301 293 290 280 275 271 268 268 267 257 242 234 212
178 160 169 173 195 213 198 256 272 296 305 310 320 317 308 300 286 260 250 292 300 302 300 302 297 316 316 323 322 316 312 306 301 297 288 282 270 261 258 251 248 232 229
181 183 182 160 200 193 217 264 293 306 330 323 319 322 318 308 279 294 295 307 290 282 294 301 314 323 343 345 342 340 332 326 317 308 299 287 275 266 257 243 233 222 206
192 192 185 167 160 194 216 303 339 339 320 323 331 328 352 345 299 295 304 289 290 304 314 326 343 2 4 11 355 337 328 323 330 332 347 12 307 259 243 219 193 182 163
193 195 183 171 177 202 236 331 337 314 301 333 346 338 322 319 304 285 269 269 274 282 288 321 3 27 9 342 341 336 341 339 355 18 12 23 54 71 103 141 150 171 171
198 175 168 191 157 175 212 23 336 315 4 342 321 295 287 278 264 258 259 261 271 244 214 90 59 17 9 9 27 29 51 44 45 49 51 53 57 72 89 101 105 135 155
178 157 176 187 194 193 190 47 348 342 326 318 294 281 267 259 256 253 266 246 237 223 224 232 355 25 58 52 59 80 81 76 68 65 68 74 74 82 93 97 92 85 84
158 169 190 199 185 217 181 93 321 289 252 265 272 256 267 247 223 258 301 278 279 226 219 238 69 107 75 80 91 87 81 77 67 70 75 79 77 77 97 96 87 81 76
158 179 201 196 197 226 205 151 289 346 310 291 257 244 224 230 219 229 227 229 233 219 190 169 163 108 96 106 105 110 109 97 83 82 92 90 79 80 90 100 94 87 86
186 195 199 212 211 244 159 148 277 286 21 300 266 238 229 224 220 219 212 210 199 208 201 168 144 148 139 119 108 112 127 125 112 102 101 92 86 87 78 93 106 99 103
198 208 221 234 242 239 176 194 251 271 51 298 271 255 245 237 227 210 198 205 201 197 208 189 169 170 152 149 130 139 126 142 128 125 117 106 103 109 112 102 104 109 109
223 230 232 244 255 253 233 221 225 235 154 191 266 261 250 240 218 212 210 193 191 204 206 205 195 167 159 165 153 158 153 151 137 136 130 122 113 114 112 107 105 108 112
223 236 245 252 250 276 274 277 285 199 196 180 259 267 255 238 223 217 214 202 200 207 213 213 201 190 172 168 166 154 148 151 141 133 126 126 128 127 114 112 112 112 118
243 243 245 247 261 262 276 287 290 276 213 205 230 252 250 235 223 223 220 211 217 216 219 219 208 181 181 190 181 170 166 161 151 141 128 120 125 125 115 114 122 114 118
240 246 248 254 272 273 262 261 273 324 325 218 210 230 243 237 221 208 199 211 226 227 222 225 223 212 213 193 181 173 180 173 158 147 144 145 149 146 141 132 130 131 129